This is the latest recevied weather packets stored in our database for station/object WD8INF-9. If no packets are shown the sender has not sent any weather packets the latest 10 day(s).
| Time | Temp. | Humidity | Pressure | Rain* | Wind** | Luminosity | Snow |
|---|---|---|---|---|---|---|---|
| 1778191834 | 27.22° C | - | 1012.1 hPa | 0 mm | - | - | - |
| 1778191534 | 25.56° C | - | 1012.2 hPa | 0 mm | - | - | - |
| 1778191234 | 18.89° C | - | 1012.1 hPa | 0 mm | - | - | - |
| 1778190934 | 18.33° C | - | 1012.2 hPa | 0 mm | - | - | - |
| 1778190634 | 19.44° C | - | 1012.2 hPa | 0 mm | - | - | - |
| 1778190331 | 24.44° C | - | 1012.1 hPa | 0 mm | - | - | - |
| 1778190031 | 24.44° C | - | 1012.2 hPa | 0 mm | - | - | - |
| 1778189731 | 20.56° C | - | 1011.9 hPa | 0 mm | - | - | - |
| 1778189431 | 18.33° C | - | 1012.4 hPa | 0 mm | - | - | - |
| 1778189130 | 23.33° C | - | 1012.1 hPa | 0 mm | - | - | - |
| 1778188830 | 22.78° C | - | 1011.9 hPa | 0 mm | - | - | - |
| 1778188530 | 23.89° C | - | 1012.2 hPa | 0 mm | - | - | - |
| 1778188229 | 28.33° C | - | 1012.1 hPa | 0 mm | - | - | - |
| 1778187929 | 26.67° C | - | 1012.2 hPa | 0 mm | - | - | - |
| 1778187626 | 27.22° C | - | 1011.8 hPa | 0 mm | - | - | - |
| 1778187326 | 25.56° C | - | 1012.2 hPa | 0 mm | - | - | - |
| 1778187026 | 26.67° C | - | 1012 hPa | 0 mm | - | - | - |
| 1778186726 | 26.67° C | - | 1012.1 hPa | 0 mm | - | - | - |
| 1778186426 | 26.11° C | - | 1011.9 hPa | 0 mm | - | - | - |
| 1778186125 | 27.22° C | - | 1012.2 hPa | 0 mm | - | - | - |
| 1778185825 | 25° C | - | 1012 hPa | 0 mm | - | - | - |
| 1778185525 | 24.44° C | - | 1012.1 hPa | 0 mm | - | - | - |
| 1778185225 | 25.56° C | - | 1011.9 hPa | 0 mm | - | - | - |
| 1778184924 | 22.22° C | - | 1012 hPa | 0 mm | - | - | - |
| 1778184624 | 24.44° C | - | 1012.1 hPa | 0 mm | - | - | - |
* Rain since midnight (hover to see other rain measurements)
** Current wind speed in m/s (hover to see current wind gust speed)